SPAINSAT NG I (62852 NORAD) Tracking and Keplerian Element Data

This shows tracking and keplerian element data for the satellite.

Feedback or suggestion? Click here.




ElementValue
Catalog62852
NameSPAINSAT NG I
Epoch Orbit3
Epoch Day33.40890692
Epoch Year2025
RAAN344.4542
Inclination26.8482
Eccentricity0.8319847
Argument of Perigee178.1674
Mean Anonmoly191.59
Mean Motion1.0627537
Decay Rate5.46E-06
L11 62852U 25021A 25033.40890692 .00000546 00000+0 11969-1 0 9995
L22 62852 26.8482 344.4542 8319847 178.1674 191.5900 1.06275370 34



Live tracking and technical data element details for SPAINSAT NG I (NORAD 62852). SPAINSAT NG I can be tracked NOW for your location showing map with azimuth and elevation plus other details from your city location.







IsCatalogInMostPopularTable: catalog: 62852, numindb: 6
Update: records affected: 1



GetName: 62852 SPAINSAT NG I

Hit Count: updated at: Sun, 09 Feb 2025 15:13:17 GMT